Retour au catalogue

THOR ABLESTAR DEB

ActifLEO
NORAD 210·DEBRIS·🇺🇸 United States

Lancé Jun 29, 1961 depuis Cape Canaveral Space Force Station

Loading…

Prochains Passages (prochaines 24 heures)

TLE

FraisSource: Space-Track

Époque: Sep 7, 2026, 06:46 UTC

1 00210U 61015BE  26250.28227972  .00000284  00000-0  29509-3 0  9992
2 00210  66.4569 162.8837 0053551 262.7011  96.7976 13.89154869276805

Suivez THOR ABLESTAR DEB en temps réel avec AllMySat

Download on the App Store